Home > Weather > Liverpool > Past weeks

Flag for United Kingdom Past Weather in Liverpool, England, United Kingdom — Yesterday and Last 2 Weeks

Now
64 °F

Passing clouds.


Feels Like: 64 °F
Forecast: 49 / 62 °F
Wind: 6 mph from Southeast

Location: Liverpool Airport

Current Time: May 27, 2016 at 7:17:58 PM

Latest Report: May 27, 2016 at 6:50 PM


Visibility: N/A

Pressure: 30.01 "Hg

Humidity: 56%

Dew Point: 48 °F

Location of LiverpoolLocation

Past Weather in Liverpool — Graph

°F

Liverpool Temperature Yesterday

Maximum temperature yesterday: 55 °F (at 4:50 PM)
Minimum temperature yesterday: 48 °F (at 12:20 AM)
Average temperature yesterday: 52 °F

High & Low Weather Summary for the Past Weeks

 TemperatureHumidityPressure
High70 °F (May 12, 6:20 PM)100% (May 15, 2:50 AM)30.24 "Hg (May 15, 2:50 AM)
Low41 °F (May 14, 3:50 AM)40% (May 24, 1:50 PM)29.56 "Hg (May 18, 5:20 AM)
Average54 °F78%29.96 "Hg
* Reported May 12 6:20 PM — May 27 6:20 PM, Liverpool, Weather by CustomWeather, © 2016

Note: Actual official high and low records may vary slightly from our data, if they occured in-between our weather recording intervals... More about our weather records

Advertising

Liverpool Weather History for the Previous 24 Hours

Scroll right to see more
 ConditionsComfort  
Time TempWeatherWind HumidityBarometerVisibility
6:20 PM
Fri, May 27
66 °FPassing clouds.5 mph52%30.01 "HgN/A
5:50 PM66 °FPassing clouds.6 mph52%30.01 "HgN/A
5:20 PM66 °FPassing clouds.6 mph52%30.04 "HgN/A
4:50 PM66 °FPassing clouds.6 mph56%30.04 "HgN/A
4:20 PM66 °FPassing clouds.6 mph52%30.04 "HgN/A
3:50 PM66 °FPassing clouds.5 mph52%30.04 "HgN/A
3:20 PM64 °FScattered clouds.6 mph56%30.04 "HgN/A
2:50 PM64 °FScattered clouds.6 mph60%30.04 "HgN/A
2:20 PM63 °FScattered clouds.6 mph59%30.07 "HgN/A
1:50 PM63 °FPartly sunny.6 mph59%30.07 "HgN/A
12:50 PM61 °FPartly sunny.7 mph63%30.07 "HgN/A
12:20 PM61 °FPartly sunny.5 mph63%30.07 "HgN/A
11:50 AM59 °FPartly sunny.5 mph72%30.07 "HgN/A
11:20 AM59 °FPartly sunny.6 mph59%30.07 "HgN/A
10:50 AM59 °FPartly sunny.6 mph72%30.07 "Hg5 mi
10:20 AM61 °FScattered clouds.8 mph72%30.07 "Hg5 mi
9:50 AM57 °FPassing clouds.7 mph82%30.07 "Hg5 mi
9:20 AM57 °FPassing clouds.7 mph77%30.07 "Hg5 mi
8:50 AM57 °FPassing clouds.7 mph77%30.07 "Hg5 mi
8:20 AM55 °FClear.5 mph82%30.07 "Hg5 mi
7:50 AM54 °FPassing clouds.5 mph94%30.07 "Hg5 mi
7:20 AM54 °FPassing clouds.3 mph94%30.07 "Hg5 mi
6:50 AM52 °FScattered clouds.2 mph100%30.07 "Hg5 mi
6:20 AM52 °FScattered clouds.3 mph100%30.04 "Hg6 mi
5:50 AM52 °FPassing clouds.5 mph100%30.04 "Hg6 mi
5:20 AM52 °FPassing clouds.6 mph100%30.04 "HgN/A
4:50 AM52 °FPassing clouds.6 mph94%30.04 "HgN/A
4:20 AM52 °FPassing clouds.5 mph94%30.04 "HgN/A
3:50 AM52 °FPassing clouds.6 mph100%30.04 "HgN/A
3:20 AM52 °FPassing clouds.5 mph100%30.04 "HgN/A
2:50 AM52 °FCool.5 mph94%30.04 "HgN/A
2:20 AM52 °FPassing clouds.6 mph94%30.04 "HgN/A
1:50 AM52 °FPassing clouds.6 mph100%30.04 "HgN/A
1:20 AM52 °FPassing clouds.5 mph100%30.04 "HgN/A
12:50 AM54 °FPassing clouds.6 mph100%30.04 "HgN/A
12:20 AM52 °FPassing clouds.3 mph100%30.04 "HgN/A
11:50 PM
Thu, May 26
54 °FPassing clouds.6 mph94%30.04 "HgN/A
11:20 PM54 °FPassing clouds.6 mph94%30.04 "HgN/A
10:50 PM54 °FPassing clouds.5 mph94%30.04 "HgN/A
10:20 PM54 °FScattered clouds.5 mph94%30.04 "HgN/A
9:50 PM54 °FScattered clouds.3 mph94%30.04 "HgN/A
9:20 PM55 °FScattered clouds.2 mph88%30.04 "HgN/A
8:50 PM55 °FScattered clouds.3 mph88%30.04 "HgN/A
8:20 PM55 °FScattered clouds.3 mph88%30.01 "HgN/A
7:50 PM54 °FScattered clouds.3 mph88%30.01 "HgN/A
7:20 PM55 °FPartly sunny.5 mph88%30.01 "HgN/A
Weather by CustomWeather, © 2016

See weather overviewHow to use our weather pages